| time (UTC) | temp C | wind direction | speed KPH | gust KPH | rain 1hr cm | rain 24hr cm | rain mn cm | humidity % | barometer mb |
| 20260510144558 | 15 | 153 | 0.0 | 8.0 | 0.00 | 1.22 | 0.00 | 69 | 1011.9 |
| 20260510143040 | 15 | 303 | 0.0 | 6.4 | 0.00 | 1.22 | 0.00 | 71 | 1011.9 |
| 20260510141513 | 15 | 147 | 0.0 | 8.0 | 0.00 | 1.22 | 0.00 | 76 | 1012.1 |
| 20260510140056 | 13 | 143 | 0.0 | 0.0 | 0.00 | 1.22 | 0.00 | 77 | 1012.1 |
| 20260510134552 | 12 | 194 | 0.0 | 0.0 | 0.00 | 1.37 | 0.00 | 80 | 1012.0 |
| 20260510133028 | 12 | 124 | 0.0 | 0.0 | 0.00 | 1.37 | 0.00 | 80 | 1012.1 |
| 20260510131517 | 11 | 121 | 0.0 | 0.0 | 0.00 | 1.37 | 0.00 | 81 | 1012.4 |
| 20260510130004 | 11 | 214 | 0.0 | 0.0 | 0.00 | 1.50 | 0.00 | 82 | 1012.3 |
| 20260510124611 | 11 | 283 | 0.0 | 0.0 | 0.00 | 1.50 | 0.00 | 82 | 1012.2 |
| 20260510123008 | 11 | 250 | 0.0 | 0.0 | 0.00 | 1.50 | 0.00 | 82 | 1012.3 |
| 20260510121600 | 10 | 146 | 0.0 | 0.0 | 0.00 | 1.50 | 0.00 | 83 | 1012.2 |
| 20260510121504 | 10 | 160 | 0.0 | 0.0 | 0.00 | 1.50 | 0.00 | 83 | 1012.2 |
| 20260510120050 | 10 | 213 | 0.0 | 0.0 | 0.00 | 1.50 | 0.00 | 83 | 1012.2 |
| 20260510114545 | 10 | 220 | 0.0 | 0.0 | 0.00 | 1.52 | 0.00 | 83 | 1012.3 |
| 20260510113038 | 10 | 222 | 0.0 | 0.0 | 0.00 | 1.52 | 0.00 | 83 | 1012.3 |
| 20260510111542 | 9 | 223 | 0.0 | 0.0 | 0.00 | 1.52 | 0.00 | 83 | 1012.3 |
| 20260510110039 | 9 | 245 | 0.0 | 0.0 | 0.00 | 1.52 | 0.00 | 83 | 1012.1 |
| 20260510104529 | 9 | 213 | 0.0 | 0.0 | 0.00 | 1.55 | 0.00 | 83 | 1011.8 |
| 20260510103014 | 9 | 239 | 0.0 | 0.0 | 0.00 | 1.55 | 0.00 | 83 | 1011.5 |
| 20260510101553 | 9 | 253 | 0.0 | 0.0 | 0.00 | 1.55 | 0.00 | 83 | 1011.4 |
| 20260510100100 | 9 | 152 | 0.0 | 0.0 | 0.00 | 1.55 | 0.00 | 84 | 1011.1 |
| 20260510094602 | 8 | 264 | 0.0 | 0.0 | 0.00 | 1.55 | 0.00 | 83 | 1010.9 |
| 20260510093104 | 8 | 229 | 0.0 | 0.0 | 0.00 | 1.55 | 0.00 | 83 | 1010.8 |
| 20260510091544 | 8 | 229 | 0.0 | 0.0 | 0.00 | 1.55 | 0.00 | 83 | 1010.7 |
| 20260510090028 | 8 | 227 | 0.0 | 0.0 | 0.00 | 1.55 | 0.00 | 84 | 1010.6 |
| 20260510084521 | 8 | 246 | 0.0 | 0.0 | 0.00 | 1.55 | 0.00 | 84 | 1010.5 |
| 20260510083101 | 8 | 200 | 0.0 | 0.0 | 0.00 | 1.55 | 0.00 | 83 | 1010.4 |
| 20260510083003 | 8 | 200 | 0.0 | 0.0 | 0.00 | 1.55 | 0.00 | 83 | 1010.4 |
| 20260510081548 | 8 | 200 | 0.0 | 0.0 | 0.00 | 1.55 | 0.00 | 83 | 1011.0 |
| 20260510080044 | 8 | 201 | 0.0 | 0.0 | 0.00 | 1.55 | 0.00 | 83 | 1011.2 |
| 20260510074532 | 8 | 201 | 0.0 | 0.0 | 0.00 | 1.55 | 0.00 | 83 | 1011.3 |
| 20260510073026 | 8 | 203 | 0.0 | 0.0 | 0.00 | 1.55 | 0.00 | 83 | 1011.2 |
| 20260510071502 | 8 | 203 | 0.0 | 0.0 | 0.00 | 1.55 | 0.00 | 83 | 1011.3 |
| 20260510070022 | 8 | 203 | 0.0 | 0.0 | 0.00 | 1.55 | 0.00 | 83 | 1011.2 |
| 20260510064510 | 8 | 203 | 0.0 | 0.0 | 0.00 | 1.55 | 0.00 | 83 | 1011.1 |
| 20260510063054 | 8 | 203 | 0.0 | 0.0 | 0.00 | 1.55 | 0.00 | 83 | 1010.9 |
| 20260510061546 | 8 | 203 | 0.0 | 0.0 | 0.00 | 1.55 | 0.00 | 83 | 1010.9 |
| 20260510060032 | 8 | 203 | 0.0 | 0.0 | 0.00 | 1.55 | 0.00 | 83 | 1011.1 |
| 20260510054518 | 8 | 197 | 0.0 | 0.0 | 0.00 | 1.55 | 0.00 | 83 | 1011.4 |
| 20260510053033 | 8 | 229 | 0.0 | 0.0 | 0.00 | 1.55 | 0.00 | 83 | 1011.4 |
| 20260510051528 | 8 | 225 | 0.0 | 0.0 | 0.00 | 1.55 | 0.00 | 83 | 1011.2 |
| 20260510050005 | 8 | 224 | 0.0 | 0.0 | 0.00 | 1.55 | 0.00 | 82 | 1011.5 |
| 20260510044512 | 8 | 224 | 0.0 | 0.0 | 0.00 | 1.55 | 0.00 | 82 | 1011.3 |
| 20260510043004 | 8 | 224 | 0.0 | 0.0 | 0.00 | 1.55 | 0.00 | 82 | 1011.3 |
| 20260510041554 | 8 | 224 | 0.0 | 0.0 | 0.00 | 1.55 | 0.00 | 82 | 1011.5 |
| 20260510040044 | 8 | 226 | 0.0 | 0.0 | 0.00 | 1.55 | 0.00 | 82 | 1011.3 |
| 20260510034528 | 8 | 226 | 0.0 | 0.0 | 0.00 | 1.55 | 1.55 | 82 | 1011.3 |
| 20260510033017 | 8 | 226 | 0.0 | 0.0 | 0.00 | 1.55 | 1.55 | 82 | 1011.6 |
| 20260510031510 | 8 | 141 | 0.0 | 0.0 | 0.00 | 1.55 | 1.55 | 82 | 1011.4 |
| 20260510030104 | 8 | 141 | 0.0 | 0.0 | 0.00 | 1.55 | 1.55 | 82 | 1011.3 |
| 20260510030002 | 8 | 141 | 0.0 | 0.0 | 0.00 | 1.55 | 1.55 | 82 | 1011.3 |
| 20260510024553 | 8 | 141 | 0.0 | 0.0 | 0.00 | 1.55 | 1.55 | 82 | 1011.5 |
| 20260510023047 | 8 | 222 | 0.0 | 0.0 | 0.00 | 1.55 | 1.55 | 82 | 1011.5 |
| 20260510021546 | 8 | 238 | 0.0 | 0.0 | 0.00 | 1.55 | 1.55 | 82 | 1011.3 |
| 20260510020030 | 8 | 190 | 0.0 | 0.0 | 0.00 | 1.55 | 1.55 | 82 | 1011.4 |
| 20260510014549 | 8 | 190 | 0.0 | 0.0 | 0.00 | 1.55 | 1.55 | 82 | 1011.8 |
| 20260510010055 | 8 | 181 | 0.0 | 0.0 | 0.00 | 1.55 | 1.55 | 81 | 1011.4 |
| 20260510004545 | 8 | 228 | 0.0 | 0.0 | 0.00 | 1.55 | 1.55 | 81 | 1011.2 |
| 20260510003036 | 8 | 273 | 0.0 | 0.0 | 0.00 | 1.55 | 1.55 | 81 | 1011.1 |
| 20260510001537 | 8 | 281 | 0.0 | 0.0 | 0.00 | 1.55 | 1.55 | 81 | 1010.7 |
| 20260510000023 | 9 | 281 | 0.0 | 0.0 | 0.00 | 1.55 | 1.55 | 81 | 1010.7 |
| 20260509234511 | 9 | 93 | 0.0 | 0.0 | 0.00 | 1.55 | 1.55 | 81 | 1010.5 |
| 20260509233010 | 9 | 300 | 0.0 | 0.0 | 0.00 | 1.55 | 1.55 | 81 | 1010.5 |
| 20260509231551 | 10 | 300 | 0.0 | 0.0 | 0.00 | 1.55 | 1.55 | 81 | 1010.4 |
| 20260509230045 | 9 | 337 | 0.0 | 0.0 | 0.00 | 1.55 | 1.55 | 81 | 1010.5 |
| 20260509224543 | 9 | 337 | 0.0 | 0.0 | 0.00 | 1.55 | 1.55 | 81 | 1010.6 |
| 20260509223033 | 9 | 337 | 0.0 | 0.0 | 0.00 | 1.55 | 1.55 | 81 | 1010.5 |
| 20260509221519 | 8 | 337 | 0.0 | 0.0 | 0.00 | 1.55 | 1.55 | 80 | 1010.5 |
| 20260509220018 | 9 | 338 | 0.0 | 0.0 | 0.00 | 1.55 | 1.55 | 81 | 1010.5 |
| 20260509214504 | 8 | 338 | 0.0 | 0.0 | 0.00 | 1.55 | 1.55 | 81 | 1010.7 |
| 20260509213102 | 8 | 338 | 0.0 | 0.0 | 0.03 | 1.55 | 1.55 | 80 | 1010.8 |
| 20260509211551 | 8 | 59 | 0.0 | 0.0 | 0.05 | 1.55 | 1.55 | 80 | 1010.9 |
| 20260509210044 | 8 | 61 | 0.0 | 0.0 | 0.08 | 1.55 | 1.55 | 80 | 1011.2 |
| 20260509204521 | 7 | 258 | 0.0 | 0.0 | 0.10 | 1.55 | 1.55 | 79 | 1011.5 |
| 20260509203016 | 7 | 314 | 0.0 | 0.0 | 0.13 | 1.52 | 1.52 | 79 | 1011.7 |
| 20260509201506 | 7 | 314 | 0.0 | 0.0 | 0.18 | 1.50 | 1.50 | 79 | 1011.7 |
| 20260509200017 | 7 | 352 | 0.0 | 0.0 | 0.18 | 1.45 | 1.45 | 79 | 1011.9 |
| 20260509194511 | 7 | 350 | 0.0 | 0.0 | 0.18 | 1.42 | 1.42 | 79 | 1012.0 |
| 20260509193003 | 7 | 350 | 0.0 | 0.0 | 0.15 | 1.37 | 1.40 | 78 | 1012.0 |
| 20260509191604 | 7 | 350 | 0.0 | 0.0 | 0.15 | 1.32 | 1.35 | 79 | 1011.7 |
| 20260509190050 | 7 | 67 | 0.0 | 0.0 | 0.18 | 1.30 | 1.30 | 79 | 1012.0 |
| 20260509184600 | 7 | 32 | 0.0 | 0.0 | 0.23 | 1.27 | 1.27 | 78 | 1012.0 |
| 20260509183052 | 7 | 26 | 0.0 | 0.0 | 0.20 | 1.22 | 1.22 | 78 | 1012.1 |
| 20260509181531 | 7 | 17 | 0.0 | 0.0 | 0.18 | 1.17 | 1.17 | 78 | 1012.4 |
| 20260509180017 | 7 | 17 | 0.0 | 0.0 | 0.15 | 1.09 | 1.12 | 78 | 1012.5 |
| 20260509174505 | 7 | 278 | 0.0 | 0.0 | 0.13 | 1.04 | 1.04 | 78 | 1012.6 |
| 20260509173053 | 7 | 262 | 0.0 | 0.0 | 0.13 | 1.02 | 1.02 | 77 | 1012.7 |
| 20260509171528 | 7 | 239 | 0.0 | 0.0 | 0.15 | 0.99 | 0.99 | 78 | 1012.8 |
| 20260509170006 | 6 | 239 | 0.0 | 0.0 | 0.13 | 0.94 | 0.94 | 77 | 1013.0 |
| 20260509164542 | 6 | 239 | 0.0 | 0.0 | 0.15 | 0.91 | 0.91 | 77 | 1013.0 |
| 20260509163034 | 6 | 281 | 0.0 | 0.0 | 0.18 | 0.89 | 0.89 | 76 | 1013.2 |
| 20260509161514 | 6 | 108 | 0.0 | 0.0 | 0.20 | 0.84 | 0.84 | 76 | 1013.2 |
| 20260509160056 | 6 | 2 | 0.0 | 0.0 | 0.23 | 0.81 | 0.81 | 76 | 1013.5 |
| 20260509154545 | 6 | 2 | 0.0 | 0.0 | 0.25 | 0.76 | 0.76 | 76 | 1013.8 |
| 20260509153051 | 6 | 336 | 0.0 | 0.0 | 0.25 | 0.71 | 0.71 | 76 | 1014.0 |
| 20260509151527 | 6 | 337 | 0.0 | 0.0 | 0.28 | 0.64 | 0.64 | 75 | 1014.1 |